Regional Weather Roundup
Issued by NWS

Home | Current Version | Previous Version | Graphics & Text | Print | Product List | Glossary On
Versions: 1 2 3 4 5 6 7 8 9 10 11 12 13 14 15 16 17 18 19 20 21 22 23 24 25 26 27 28 29 30 31 32 33 34 35 36 37 38 39 40 41 42 43 44 45 46 47 48 49 50
000
ASUS43 KLMK 051802
RWRKY
KENTUCKY REGIONAL WEATHER ROUNDUP
NATIONAL WEATHER SERVICE LOUISVILLE KY
100 PM EST THU MAR 05 2015

NOTE "FAIR" INDICATES FEW OR NO CLOUDS BELOW 12,000 FEET
WITH NO SIGNIFICANT WEATHER AND/OR OBSTRUCTIONS TO VISIBILITY.

KYZ001>023-026-027-061>063-070>075-051900-
WESTERN AND SOUTH CENTRAL KENTUCKY

CITY           SKY/WX    TMP DP  RH WIND       PRES   REMARKS
PADUCAH        FAIR      25   9  50 N16       30.50R WCI  12
HENDERSON      FAIR      23   5  46 NW14      30.49S WCI  11
OWENSBORO      FAIR      22  12  65 NW12      30.48R WCI  11
HOPKINSVILLE   CLOUDY    23  12  64 NW8       30.45R WCI  13
BOWLING GREEN  CLOUDY    23  16  74 N7        30.43R WCI  15
GLASGOW        NOT AVBL
$$

KYZ024-025-028>034-038-045-046-053-051900-
NORTH CENTRAL KENTUCKY

CITY           SKY/WX    TMP DP  RH WIND       PRES   REMARKS
LOUISVILLE/SDF PTSUNNY   24  13  62 N9        30.42R WCI  14
LOUISVILLE/LOU CLOUDY    24  13  62 NW10      30.42R WCI  14
FORT KNOX      PTSUNNY   22  12  64 NW8       30.38R WCI  13
$$

KYZ035>037-039>044-047>052-055>060-089>105-051900-
NORTHEAST KENTUCKY

CITY           SKY/WX    TMP DP  RH WIND       PRES   REMARKS
LEXINGTON      FLURRIES  18  12  77 N10       30.35R WCI   6
COVINGTON      CLOUDY    21   7  54 N12       30.36S WCI   9
FRANKFORT      CLOUDY    21  12  68 N8        30.38R WCI  11
$$

KYZ054-064>069-076>088-106>120-051900-
SOUTHEAST KENTUCKY

CITY           SKY/WX    TMP DP  RH WIND       PRES   REMARKS
JACKSON        SNOW      20  16  84 NE6       30.25R VSB 1/2 WCI  12
LONDON         MIX PCPN  22  15  75 N10       30.27R WCI  11
SOMERSET       NOT AVBL
MIDDLESBORO    CLOUDY    28  22  79 N10       30.22R WCI  18
MONTICELLO     LGT SNOW  22  18  85 CALM      30.34S FOG
$$




USA.gov is the U.S. government's official web portal to all federal, state and local government web resources and services.